Location: Mercogliano
(40.9167°N, 14.7333°E)
Time: 02:38:23
(UTC+00:00)

X-37B - Pass Details

Date: 26 November 2020
Orbit: 383 x 391 km, 45.1° (Epoch: 22 January)

Event Time Altitude Azimuth Distance (km) Brightness Sun altitude
Rises 17:23:04 0° 229° (SW) 2,250 5.5 -20.0°
Reaches altitude 10° 17:25:11 10° 221° (SW) 1,401 4.1 -20.4°
Enters shadow 17:27:26 34° 186° (S) 660 1.8 -20.8°
